Simultaneous Nadir Overpasses (SNOs) Predictions

Prediction of SNOs between AQUA and METOP-C Satellite Orbit:

Table of predicted SNOs for the next 14.0 days since TLE Epoch: 4/10/2021
Index Date (AQUA) Time (AQUA) Lat,Lon (AQUA) SZA (AQUA ) Date (METOP-C) Time (METOP-C) Lat,Lon (METOP-C) SZA (METOP-C ) Distance(km) Time Diff (sec)
1 04/12/2021 02:56:32 73.04, 131.69 64.27 04/12/2021 02:55:26 72.97, 128.90 64.30 91.13 66
2 04/12/2021 03:46:10 -73.71, -62.06 115.04 04/12/2021 03:45:52 -73.72, -62.10 115.02 1.84 18
3 04/12/2021 04:35:40 73.82, 105.33 65.07 04/12/2021 04:36:31 73.81, 105.43 65.04 3.59 51
4 04/14/2021 22:30:52 73.34,-162.48 63.56 04/14/2021 22:29:42 73.30,-163.99 63.58 48.38 70
5 04/14/2021 23:20:25 -73.74, 4.31 116.03 04/14/2021 23:20:14 -73.75, 4.37 116.02 1.91 11
6 04/15/2021 00:09:54 73.81, 171.80 64.03 04/15/2021 00:10:54 73.78, 171.77 64.00 3.09 60
7 04/17/2021 18:05:12 73.64, -96.68 62.88 04/17/2021 18:03:59 73.57, -96.97 62.83 11.90 73
8 04/17/2021 18:54:39 -73.72, 70.79 117.05 04/17/2021 18:54:37 -73.72, 70.71 117.05 2.34 2
9 04/17/2021 19:44:08 73.80,-121.74 63.02 04/17/2021 19:45:16 73.80,-121.77 63.02 1.19 68
10 04/20/2021 13:39:26 73.69, -30.35 61.96 04/20/2021 13:38:18 73.69, -30.28 61.97 1.91 68
11 04/20/2021 14:28:53 -73.77, 137.14 117.98 04/20/2021 14:28:58 -73.75, 137.17 118.00 2.69 5
12 04/20/2021 15:18:23 73.90, -55.52 62.15 04/20/2021 15:19:35 73.92, -55.08 62.15 13.66 72
13 04/23/2021 09:13:40 73.70, 36.09 61.01 04/23/2021 09:12:40 73.71, 36.16 61.03 2.59 60
14 04/23/2021 10:03:07 -73.76,-156.42 118.93 04/23/2021 10:03:20 -73.77,-156.38 118.93 1.27 13



Historial Predications of SNOs between AQUA and METOP-C
